Location: Wien
(48.2082°N, 16.3738°E)
Time: 11:28:21
(UTC+02:00)

Tiros 1 despin weight - Pass Details

Date: 20 September 2024
Orbit: 573 x 615 km, 48.2° (Epoch: 06 October)

Event Time Altitude Azimuth Distance (km) Brightness Sun altitude
Rises 03:10:15 0° 242° (WSW) 2,853 - -32.0°
Reaches altitude 10° 03:12:33 10° 239° (WSW) 1,957 - -31.7°
Maximum altitude 03:16:59 60° 160° (SSE) 705 - -31.2°
Exits shadow 03:19:25 26° 88° (E) 1,233 ? -30.9°
Drops below altitude 10° 03:21:28 10° 80° (E) 1,980 ? -30.7°
Sets 03:23:48 0° 77° (ENE) 2,889 ? -30.4°
